Weather History for Manchester, NH

Change the Weather History Date:

Thursday, May 23, 2013

  Actual Average Record
Temperature  
Mean Temperature 65 °F -  
Max Temperature 77 °F 72 °F 93 °F (1964)
Min Temperature 53 °F 45 °F 31 °F (1950)
Growing Degree Days 15 (Base 50)    
Moisture  
Dew Point 60 °F    
Average Humidity 91    
Maximum Humidity 100    
Minimum Humidity 71    
Precipitation  
Precipitation 0.52 in - - ()
Sea Level Pressure  
Sea Level Pressure 29.87 in    
Wind  
Wind Speed 4 mph (South)    
Max Wind Speed 16 mph    
Max Gust Speed 24 mph    
Visibility 4 miles    
Events Fog , Rain , Thunderstorm    
Averages and records for this station are not official NWS values.
T = Trace of Precipitation, MM = Missing Value Source: NWS Daily Summary

Daily Weather History Graph

Daily Weather History Graph

Search for Another Location

Airport:

Trip Planner

Search our weather history database for the weather conditions in past years. The results will help you decide how hot, cold, wet, or windy it might be!

Date:

Astronomy

May. 23, 2013 Rise Set
Actual Time 5:15 AM EDT 8:10 PM EDT
Civil Twilight 4:41 AM EDT 8:43 PM EDT
Nautical Twilight 3:59 AM EDT 9:26 PM EDT
Astronomical Twilight 3:09 AM EDT 10:16 PM EDT
Moon 6:37 PM EDT (5/23) 4:00 AM EDT (5/23)
Length of Visible Light 16h 02m
Length of Day
14h 55m
Waxing Gibbous, 97% of the Moon is Illuminated
May 23
Waxing Gibbous
May 25
Full
May 31
Last Quarter
Jun 8
New
Jun 16
First Quarter

Hourly Weather History & Observations

Time (EDT) Temp. Dew Point Humidity Pressure Visibility Wind Dir Wind Speed Gust Speed Precip Events Conditions
12:53 AM 53.1 °F 51.1 °F 93% 29.95 in 0.8 mi Calm Calm - 0.00 in   Light Drizzle
1:53 AM 53.1 °F 51.1 °F 93% 29.95 in 1.0 mi Calm Calm - 0.00 in   Overcast
2:53 AM 53.1 °F 51.1 °F 93% 29.92 in 0.5 mi Calm Calm - N/A Fog Fog
3:09 AM 53.6 °F 51.8 °F 94% 29.87 in 0.5 mi ESE 3.5 mph - N/A Fog Fog
3:53 AM 53.1 °F 52.0 °F 96% 29.91 in 1.0 mi ESE 4.6 mph - N/A   Overcast
4:53 AM 53.1 °F 52.0 °F 96% 29.91 in 1.0 mi Calm Calm - N/A   Overcast
5:28 AM 53.6 °F 51.8 °F 94% 29.88 in 0.5 mi Calm Calm - 0.01 in Fog Light Drizzle
5:53 AM 53.1 °F 52.0 °F 96% 29.93 in 0.5 mi Calm Calm - 0.01 in Fog Light Drizzle
5:55 AM 53.6 °F 51.8 °F 94% 29.89 in 1.0 mi Calm Calm - 0.00 in   Light Drizzle
6:42 AM 53.6 °F 51.8 °F 94% 29.89 in 1.5 mi Calm Calm - 0.00 in   Light Drizzle
6:53 AM 54.0 °F 52.0 °F 93% 29.93 in 1.5 mi East 3.5 mph - 0.00 in   Light Drizzle
7:53 AM 55.0 °F 53.1 °F 93% 29.93 in 1.5 mi Calm Calm - 0.00 in   Overcast
8:53 AM 55.0 °F 54.0 °F 96% 29.93 in 1.5 mi Calm Calm - N/A   Overcast
9:40 AM 55.4 °F 55.4 °F 100% 29.88 in 0.8 mi South 3.5 mph - N/A   Overcast
9:53 AM 55.9 °F 55.0 °F 97% 29.92 in 0.8 mi South 5.8 mph - N/A   Overcast
10:40 AM 57.2 °F 55.4 °F 94% 29.87 in 1.0 mi South 4.6 mph - 0.01 in   Overcast
10:53 AM 57.0 °F 55.9 °F 96% 29.91 in 1.0 mi South 4.6 mph - 0.01 in Rain Light Rain
11:45 AM 60.8 °F 57.2 °F 88% 29.87 in 3.0 mi Calm Calm - 0.00 in   Overcast
11:53 AM 60.1 °F 57.9 °F 93% 29.92 in 3.0 mi Variable 3.5 mph - 0.00 in   Overcast
12:42 PM 62.6 °F 60.8 °F 94% 29.86 in 5.0 mi Calm Calm - N/A   Overcast
12:53 PM 64.0 °F 61.0 °F 90% 29.89 in 5.0 mi South 4.6 mph - N/A   Overcast
1:38 PM 69.8 °F 66.2 °F 88% 29.82 in 5.0 mi SE 3.5 mph - 0.01 in   Mostly Cloudy
1:53 PM 72.0 °F 68.0 °F 87% 29.85 in 6.0 mi South 4.6 mph - 0.01 in   Mostly Cloudy
2:32 PM 75.2 °F 68.0 °F 78% 29.81 in 10.0 mi South 11.5 mph 18.4 mph N/A   Overcast
2:53 PM 77.0 °F 66.9 °F 71% 29.84 in 10.0 mi South 16.1 mph 21.9 mph N/A Rain , Thunderstorm Light Thunderstorms and Rain
3:06 PM 71.6 °F 68.0 °F 88% 29.82 in 1.5 mi SSW 11.5 mph 23.0 mph 0.10 in Rain , Thunderstorm Heavy Thunderstorms and Rain
3:22 PM 71.6 °F 68.0 °F 88% 29.82 in 6.0 mi South 9.2 mph 16.1 mph 0.20 in Thunderstorm Overcast
3:33 PM 71.6 °F 68.0 °F 88% 29.82 in 6.0 mi SSW 6.9 mph - 0.20 in   Overcast
3:53 PM 72.0 °F 69.1 °F 91% 29.86 in 6.0 mi South 8.1 mph - 0.20 in   Mostly Cloudy
4:53 PM 72.0 °F 66.9 °F 84% 29.86 in 5.0 mi South 8.1 mph - 0.00 in Rain Light Rain
5:30 PM 69.8 °F 66.2 °F 88% 29.81 in 4.0 mi SSE 8.1 mph - 0.06 in Rain Light Rain
5:53 PM 70.0 °F 66.9 °F 90% 29.85 in 4.0 mi South 8.1 mph - 0.09 in Rain Light Rain
6:39 PM 69.8 °F 66.2 °F 88% 29.81 in 3.0 mi South 12.7 mph - 0.04 in Rain Light Rain
6:53 PM 69.1 °F 66.9 °F 93% 29.85 in 3.0 mi South 11.5 mph 24.2 mph 0.08 in Rain Rain
7:53 PM 68.0 °F 64.9 °F 90% 29.86 in 6.0 mi South 11.5 mph - 0.05 in Rain Light Rain
8:53 PM 66.9 °F 64.9 °F 93% 29.84 in 10.0 mi South 6.9 mph - 0.01 in   Scattered Clouds
9:16 PM 68.0 °F 64.4 °F 88% 29.80 in 10.0 mi South 11.5 mph - N/A   Mostly Cloudy
9:53 PM 68.0 °F 64.9 °F 90% 29.84 in 10.0 mi South 10.4 mph - 0.00 in   Overcast
10:53 PM 68.0 °F 64.0 °F 87% 29.82 in 10.0 mi South 9.2 mph - 0.00 in Rain Light Rain
11:29 PM 66.2 °F 64.4 °F 94% 29.77 in 4.0 mi South 13.8 mph 23.0 mph 0.05 in Rain Light Rain
11:53 PM 66.0 °F 64.0 °F 93% 29.81 in 10.0 mi South 9.2 mph 19.6 mph 0.06 in Rain Light Rain